"Pseudo-MPEC" for P21JVzW

Created 2023 Sep 23 17:22:24 UT using Find_Orb

Click here for an explanation of pseudo-MPECs

 
 Astrometry: 
     P21JVzW  C2023 09 18HwiJAstrometryokv(?Mredacted;R%?khLUclick,WIX*7!fD4oF52
     P21JVzW* C2023 09 18I\l%KpuplWisdolU70CuAF-K7.l5v;92ahere^Xm.$%xxiGjD^c.F52
     P21JVzW  C2023 09 18[^O(kforUsTG/PHc#@![4c`9;explanation8(b(k4\Ocu7)?3[PF52

Station data:
(F52) Pan-STARRS 2, Haleakala  (N20.707382 W156.255910)  US/Hawaii.
   Observers J. Bulger, T. Dukes, T. Lowe, A. Schultz, M. Willman. Measurers
   K. Chambers, S. Chastel, T. de Boer, L. Denneau, J. Fairlamb, H.
   Flewelling, M. Huber, C.-C. Lin, E. Magnier, Y. Ramanjooloo, R. Wainscoat,
   R. Weryk. 1.8-m Ritchey-Chrétien + CCD.

Orbital elements:  P21JVzW
   Perihelion 2023 Nov 10.36504 +/- 29.4 TT =  8:45:39 (JD 2460258.86504)
Epoch 2023 Sep 18.0 TT = JDT 2460205.5   Earth MOID: 0.0178   Ve: 0.0854
M 341.45828093 +/- 22               (J2000 ecliptic)             AutoNEOCP
n   0.34745064 +/- 0.305            Peri.   85.00463 +/- 90
a   2.00389040 +/- 1.17             Node     5.15836 +/- 70
e   0.7018868 +/- 0.249             Incl.   16.54153 +/- 9
P   2.84                   H 23.59  G  0.15   U 11.9  SR
q 0.59738608 +/- 0.213    Q 3.41039471 +/- 37
From 3 observations 2023 Sept. 18 (29.9 min); mean residual 0".08
Residuals in arcseconds: 
230918 F52  .07+  .04-    230918 F52  .14-  .08+    230918 F52  .07+  .04-    

Ephemerides (geocentric):
Date (UTC) HH   RA             Dec           delta  r     elong  mag " sig PA
---- --------  ------------   ------------  ------ ------ -----  --- --------
2023 09 23 17  05 07 28.128   -31 13 24.13  .02723 1.0092 101.3 18.5  58d 110
2023 09 23 18  05 11 58.277   -31 08 12.74  .02694 1.0087 100.3 18.5  58d 110
2023 09 23 19  05 16 33.574   -31 02 18.48  .02666 1.0082  99.4 18.5  58d 110
2023 09 23 20  05 21 13.943   -30 55 39.30  .02639 1.0077  98.4 18.5  58d 110
2023 09 23 21  05 25 59.287   -30 48 13.15  .02613 1.0072  97.4 18.5  58d 110
2023 09 23 22  05 30 49.488   -30 39 58.02  .02588 1.0067  96.4 18.5  58d 110
2023 09 23 23  05 35 44.406   -30 30 51.96  .02564 1.0062  95.4 18.6  58d 110
2023 09 24 00  05 40 43.881   -30 20 53.10  .02541 1.0057  94.4 18.6  58d 110
2023 09 24 01  05 45 47.729   -30 09 59.63  .02518 1.0052  93.3 18.6  59d 110
2023 09 24 02  05 50 55.745   -29 58 09.88  .02497 1.0047  92.2 18.6  59d 110
2023 09 24 03  05 56 07.700   -29 45 22.33  .02476 1.0042  91.1 18.6  59d 110
2023 09 24 04  06 01 23.345   -29 31 35.59  .02456 1.0037  90.0 18.7  59d 110
2023 09 24 05  06 06 42.407   -29 16 48.46  .02438 1.0032  88.9 18.7  59d 110
2023 09 24 06  06 12 04.595   -29 00 59.97  .02421 1.0027  87.7 18.7  59d 110
2023 09 24 07  06 17 29.596   -28 44 09.33  .02404 1.0022  86.6 18.8  59d 110
2023 09 24 08  06 22 57.082   -28 26 16.04  .02389 1.0017  85.4 18.8  60d 110
2023 09 24 09  06 28 26.707   -28 07 19.84  .02375 1.0012  84.2 18.8  60d 110
2023 09 24 10  06 33 58.109   -27 47 20.75  .02362 1.0007  83.0 18.9  60d 110
2023 09 24 11  06 39 30.917   -27 26 19.10  .02350 1.0002  81.8 18.9  60d 110
2023 09 24 12  06 45 04.748   -27 04 15.51  .02339 0.9997  80.5 19.0  60d 110
2023 09 24 13  06 50 39.213   -26 41 10.90  .02330 0.9992  79.3 19.0  61d 110
2023 09 24 14  06 56 13.919   -26 17 06.53  .02322 0.9987  78.0 19.1  61d 110
2023 09 24 15  07 01 48.469   -25 52 03.95  .02315 0.9982  76.8 19.1  61d 110
2023 09 24 16  07 07 22.470   -25 26 05.03  .02309 0.9977  75.5 19.2  61d 110
2023 09 24 17  07 12 55.530   -24 59 11.92  .02304 0.9972  74.2 19.3  62d 110
2023 09 24 18  07 18 27.267   -24 31 27.07  .02301 0.9967  72.9 19.3  62d 110
2023 09 24 19  07 23 57.304   -24 02 53.18  .02299 0.9962  71.7 19.4  62d 110
2023 09 24 20  07 29 25.280   -23 33 33.20  .02298 0.9957  70.4 19.5  62d 110
2023 09 24 21  07 34 50.843   -23 03 30.28  .02299 0.9952  69.1 19.5  62d 110
2023 09 24 22  07 40 13.663   -22 32 47.79  .02300 0.9947  67.8 19.6  63d 110
2023 09 24 23  07 45 33.421   -22 01 29.22  .02303 0.9942  66.6 19.7  63d 110
2023 09 25 00  07 50 49.823   -21 29 38.23  .02308 0.9937  65.3 19.8  63d 110
2023 09 25 01  07 56 02.591   -20 57 18.53  .02313 0.9932  64.0 19.9  63d 109
2023 09 25 02  08 01 11.471   -20 24 33.93  .02320 0.9927  62.8 20.0  64d 109
2023 09 25 03  08 06 16.230   -19 51 28.25  .02328 0.9922  61.5 20.1  64d 109
2023 09 25 04  08 11 16.657   -19 18 05.31  .02337 0.9917  60.3 20.1  64d 109
2023 09 25 05  08 16 12.564   -18 44 28.89  .02347 0.9912  59.1 20.2  64d 109
2023 09 25 06  08 21 03.785   -18 10 42.72  .02359 0.9907  57.9 20??  64d 109
2023 09 25 07  08 25 50.176   -17 36 50.44  .02372 0.9902  56.7 20??  65d 109
2023 09 25 08  08 30 31.615   -17 02 55.57  .02386 .98970  55.5 20??  65d 109
2023 09 25 09  08 35 08.000   -16 29 01.51  .02401 .98920  54.3 20??  65d 109
2023 09 25 10  08 39 39.248   -15 55 11.50  .02417 .98870  53.2 20??  65d 109
2023 09 25 11  08 44 05.298   -15 21 28.61  .02434 .98820  52.1 20??  65d 109
2023 09 25 12  08 48 26.105   -14 47 55.76  .02452 .98770  50.9 21??  65d 109
2023 09 25 13  08 52 41.639   -14 14 35.65  .02471 .98720  49.9 21??  66d 109
2023 09 25 14  08 56 51.889   -13 41 30.81  .02492 .98671  48.8 21??  66d 109
2023 09 25 15  09 00 56.857   -13 08 43.56  .02513 .98621  47.7 21??  66d 109
2023 09 25 16  09 04 56.558   -12 36 16.03  .02535 .98571  46.7 21??  66d 109